Regional Weather Roundup
Issued by NWS Upton, NY

Current Version | Previous Version | Text Only | Print | Product List | Glossary On
Versions: 1 2 3 4 5 6 7 8 9 10 11 12 13 14 15 16 17 18 19 20 21 22 23 24 25 26 27 28 29 30 31 32 33 34 35 36 37 38 39 40 41 42 43 44 45 46 47 48 49 50
000
ASUS41 KOKX 231108
RWROKX

Regional Weather Roundup
National Weather Service New York NY
600 AM EST TUE JAN 23 2018

Note: "FAIR" indicates few or no clouds below 12,000 feet with no
significant weather and/or obstructions to visibility.

NYZ071-072-176-178-NJZ106-104-231200-
New York City Metro Area

CITY           SKY/WX    TMP DP  RH WIND       PRES   REMARKS
Central Park   FOG       42  41  96 SE5       29.86F VSB 1/2
Bronx Bot Gard NOT AVBL
Bronx Lehman C   N/A     39  39 100 E5          N/A
LaGuardia Arpt FOG       37  36  96 E7        29.84F VSB<1/4 WCI  32
Queens College   N/A     43  43 100 SE7         N/A
Kennedy Intl   CLOUDY    45  45 100 SE7       29.85F FOG
Breezy Point     N/A     41 N/A N/A E6          N/A
Brooklyn Coll    N/A     45  45 100 SE3         N/A
Staten Island    N/A     45  45 100 SE7         N/A
Newark/Liberty LGT RAIN  43  42  97 NE7       29.81F VSB 1/4
Teterboro      RAIN      42  41  96 CALM      29.83F VSB 1/2
$$

NYZ177-179-078>081-231200-
Long Island New York

CITY           SKY/WX    TMP DP  RH WIND       PRES   REMARKS
Jones Beach      N/A     43 N/A N/A SE3         N/A
Wantagh          N/A     45  45 100 SE5         N/A
Matinecock Pt    N/A     36 N/A N/A E13         N/A  WCI  27
Farmingdale    FOG       46  46 100 S3        29.87F VSB 1/8
MacArthur/ISP  CLOUDY    53  50  89 S14G20    29.87F
Shirley        CLOUDY    50  50 100 SE8       29.89F
Mt Sinai Harb    N/A    N/A N/A N/A NE5         N/A
Westhampton    CLOUDY    49  47  93 SE8       29.91F
East Hampton   CLOUDY    47  47  98 SE6       29.91S
Southold         N/A     46  46 100 S5          N/A
Montauk          N/A     47  45  93 S6        29.94F
$$

NYZ052-065-067-231200-
Hudson Valley

CITY           SKY/WX    TMP DP  RH WIND       PRES   REMARKS
White Plains   FOG       42  42 100 E8        29.83F VSB 1/4
Larchmont Harb   N/A     36 N/A N/A NE15        N/A  WCI  26
Croton On Huds   N/A     37 N/A N/A MISG        N/A
Somers           N/A     41  41 100 E5          N/A
Brewster         N/A     39  39 100 S1          N/A
Newburgh       FOG       41  41 100 E5        29.83F VSB 1/4
Montgomery     LGT RAIN  37  36  96 NE6       29.80F VSB 1/4 WCI  32
Otisville        N/A     36  36 100 NE3         N/A
Warwick          N/A     41  41 100 NW2         N/A
Suffern          N/A     39  39 100 NE2         N/A
Poughkeepsie   CLOUDY    39  38  96 CALM      29.83F FOG
Albany         CLOUDY    39  36  89 S9        29.81F WCI  33
$$

NJZ001-105-106-008-010-013-015-019>022-104-231200-
New Jersey

CITY           SKY/WX    TMP DP  RH WIND       PRES   REMARKS
Newark/Liberty LGT RAIN  43  42  97 NE7       29.81F VSB 1/4
Teterboro      RAIN      42  41  96 CALM      29.83F VSB 1/2
Caldwell       RAIN      39  39 100 NE5       29.84F FOG
Somerville     LGT RAIN  41  41 100 NW3       29.79F FOG
Linden         LGT RAIN  42  41  96 CALM      29.82F VSB 1/2
Perth Amboy      N/A     41 N/A N/A E2          N/A
Sussex         LGT RAIN  38  38 100 CALM      29.78F VSB 3/4
Andover          N/A     42  42 100 CALM      29.77F
Trenton        CLOUDY    43  42  97 NE5       29.78F FOG
Millville      CLOUDY    50  50 100 VRB7      29.82F
Atlantic City  CLOUDY    53  53 100 S14G22    29.83F
Wrightstown    LGT RAIN  53  51  95 S14       29.78F
Toms River     NOT AVBL
Belmar         LGT RAIN  49  49 100 S10       29.83  FOG
$$

PAZ047>061-062-071-231200-
Eastern Pennsylvania

CITY           SKY/WX    TMP DP  RH WIND       PRES   REMARKS
Philadelphia   LGT RAIN  54  51  90 S8        29.78F
Allentown      RAIN      41  38  89 N5        29.78F FOG
Scranton       HVY RAIN  44  43  96 CALM      29.69F FOG
$$

CTZ002-004>006-009-010-012-RIZ004-006-007-MAZ004-011-015-231200-
Southern New England

 In CT

CITY           SKY/WX    TMP DP  RH WIND       PRES   REMARKS
Bradley Intl   DRZL/FOG  33  33 100 N3        29.93F VSB 1/4
Hartford       FOG       34  34 100 N5        29.93F VSB 1/4 WCI  30
Danbury        FOG       39  37  92 VRB3      29.87F VSB 1/4
Wtrbury/Oxford LGT RAIN  37  37 100 E9        29.87F VSB 1/4 WCI  30
Norwalk Harbor   N/A     37 N/A N/A NE13        N/A  WCI  29
Bridgeport     FOG       41  40  96 NE7       29.88F VSB 1/4
Meriden        FOG       34  34 100 NE6       29.91F VSB 1/2 WCI  29
New Haven      FOG       38  37  97 NE7       29.89F VSB 1/2 WCI  33
Chester        FOG       43  43 100 CALM      29.91S VSB<1/4
Groton         CLOUDY    47  46  97 CALM      29.92F
Willimantic    FOG       39  38  96 CALM      29.93F VSB 1/2

 In RI

CITY           SKY/WX    TMP DP  RH WIND       PRES   REMARKS
Providence     FOG       38  38 100 N5        29.95F VSB 1/4 WCI  34
Block Island   CLOUDY    47  46  97 S12       29.94F
Westerly       CLOUDY    47  46  97 S8        29.93F

In MA

CITY           SKY/WX    TMP DP  RH WIND       PRES   REMARKS
Boston         FOG       32  32 100 N6        29.98F VSB 1/2 WCI  26
Worcester      FOG       28  26  92 NE7       29.91F VSB 1/4 WCI  21
Westfield      CLOUDY    33  33 100 N6        29.92F FOG     WCI  28
Provincetown   MOCLDY    43  42  97 S6        29.99
Nantucket      CLOUDY    45  45 100 SE21      29.99F
$$

ANZ330-335-338-340-345-350-353-355-231200-
Coastal Marine Observations


STATION/POSITION TIME  SKY/WX   TEMP    WIND        PRES    VSBY  WAVE
                                AIR SEA DIR/SP/G                  HT/PER
                 (UTC)          (F)     (DEG/KT/KT) (MB)    (MI)  (FT/S)
NY Harb Entrance 0950            44 40  180/  8/ 10 1011.4          2/ 4
20 S Fire Island 0950            47 42  160/ 10/ 12 1012.2          2/ 4
15 E Barnegat Li 1030               43                N/A           3/ 3
Hudson Canyon    0950            52 49  160/ 10/ 12 1013.4          2/ 5
Kings Point      1030            36 34   80/  1/  2 1012.0
Execution Rocks  NOT AVBL
Western LI Sound NOT AVBL
Central LI Sound NOT AVBL
Robbins Reef     1030            43     100/  6/  8 1011.3
$$


>>>>>>>>>>>>>>>>>>>>>>>>>>>> KEY <<<<<<<<<<<<<<<<<<<<<<<<<<<
>                                                          <
>     SKY/WX - Sky Condition/Present Weather               <
>     TMP    - Temperature in Fahrenheit                   <
>     DP     - Dew Point in Fahrenheit                     <
>     RH     - Relative Humidity in Percent                <
>     WIND   - Direction (from) and Speed in MPH           <
>     PRES   - Mean Sea Level Pressure (inches of Hg)      <
>     WCI    - Wind Chill Index                            <
>     VSB    - Visibility in Miles                         <
>     HX     - Heat Index                                  <
>     TC     - Temperature in Celsius                      <
>     VRB    - Varibale Wind Direction                     <
>                                                          <
>>>>>>>>>>>>>>>>>>>>>>>>>>>> KEY <<<<<<<<<<<<<<<<<<<<<<<<<<<



USA.gov is the U.S. government's official web portal to all federal, state and local government web resources and services.